Location: Bern�tre
(50.1974°N, 2.0915°E)
Time: 06:04:09
(UTC+00:00)

NOSS 3-1 (C) - Pass Details

Date: 18 September 2020
Orbit: 743 x 1466 km, 63.4° (Epoch: 09 October)

Event Time Altitude Azimuth Distance (km) Brightness Sun altitude
Rises 23:19:46 0° 314° (NW) 3,788 7.2 -38.1°
Reaches altitude 10° 23:22:18 10° 319° (NW) 2,933 6.5 -38.2°
Enters shadow 23:28:49 54° 24° (NNE) 1,450 4.4 -38.3°
